Regional Weather Roundup
Issued by NWS

Home | Current Version | Previous Version | Text Only | Print | Product List | Glossary Off
Versions: 1 2 3 4 5 6 7 8 9 10 11 12 13 14 15 16 17 18 19 20 21 22 23 24 25 26 27 28 29 30 31 32 33 34 35 36 37 38 39 40 41 42 43 44 45 46 47 48 49 50

211
ASUS43 KMKX 281500
RWRWI

WISCONSIN REGIONAL WEATHER ROUNDUP
NATIONAL WEATHER SERVICE MILWAUKEE/SULLIVAN WI
900 AM CST TUE FEB 28 2017

NOTE: "FAIR" INDICATES FEW OR NO CLOUDS BELOW 12,000 FEET WITH NO
SIGNIFICANT WEATHER AND/OR OBSTRUCTIONS TO VISIBILITY.

WIZ001-002-006>008-014>016-023>028-281600-
NORTHWEST WISCONSIN

CITY           SKY/WX    TMP DP  RH WIND       PRES   REMARKS
SUPERIOR ARPT  MIX PCPN  32  32  99 NE5       29.82S WCI  27
ASHLAND        LGT SNOW  31  30  96 CALM      29.82S VSB 3/4
HAYWARD        LGT RAIN  35  32  88 NE5       29.77S WCI  31
SIREN          FLURRIES  34  28  79 NE5       29.77S WCI  30
CUMBERLAND     CLOUDY    34  30  86 NE6       29.75R WCI  29
RICE LAKE      CLOUDY    36  33  89 N8        29.76S WCI  29
CHETEK         CLOUDY    36  32  88 CALM      29.75R
LADYSMITH      CLOUDY    36  34  93 N6        29.76F WCI  31
EAU CLAIRE     NOT AVBL
MENOMONIE      CLOUDY    38  32  80 N7        29.73S WCI  32
NEW RICHMOND   CLOUDY    38  31  76 NE7       29.74S WCI  32
OSCEOLA        CLOUDY    39  31  73 E6        29.76F WCI  35
$$

WIZ003>005-009-010-017-018-281600-
NORTH CENTRAL WISCONSIN

CITY           SKY/WX    TMP DP  RH WIND       PRES   REMARKS
MANITOWISH WTR DRIZZLE   33  33 100 CALM      29.76F
ARBOR VITAE    CLOUDY    37  34  90 CALM        N/A  FOG
WOODRUFF       CLOUDY    37  34  90 CALM        N/A  FOG
RHINELANDER    CLOUDY    36  33  89 E3        29.75F FOG
EAGLE RIVER    DRIZZLE   34  33  96 CALM      29.76F
LAND O LAKES   CLOUDY    35  32  90 CALM      29.78F
PHILLIPS       DRIZZLE   33  32  95 CALM      29.75S
TOMAHAWK       CLOUDY    36  32  87 CALM      29.76F FOG
MEDFORD        CLOUDY    36  34  93 E6        29.72F FOG     WCI  31
MERRILL        NOT AVBL
$$

WIZ029-030-035-036-043>047-281600-
CENTRAL WISCONSIN

CITY           SKY/WX    TMP DP  RH WIND       PRES   REMARKS
WAUSAU         CLOUDY    37  36  96 SE8       29.74F FOG     WCI  31
MOSINEE        CLOUDY    37  37 100 SE8       29.76F FOG     WCI  31
MARSHFIELD     FOG       38  37  97 E6        29.72F VSB<1/4 WCI  33
STEVENS POINT  DRZL/FOG  36  36 100 E5        29.75F VSB 1/2 WCI  32
WAUPACA        FOG       40  39  96 E3        29.76F VSB 1/2
WAUTOMA        FOG       38  38 100 CALM      29.76F VSB<1/4
WISC RAPIDS    FOG       38  38 100 E6        29.74F VSB 1/4 WCI  33
CAMP DOUGLAS   NOT AVBL
$$

WIZ011>013-019>022-031-037>040-048>050-281600-
NORTHEAST WISCONSIN

CITY           SKY/WX    TMP DP  RH WIND       PRES   REMARKS
ANTIGO         FOG       34  34 100 E8        29.76F VSB 1/4 WCI  28
SHAWANO        FOG       37  36  94 CALM      29.79F VSB 1/4
OCONTO         CLOUDY    37  37  99 NE5       29.81F WCI  33
STURGEON BAY   CLOUDY    39  38  96 E8        29.80F FOG     WCI  33
GREEN BAY      CLOUDY    40  40 100 SE8       29.77F FOG     WCI  34
MANITOWOC      NOT AVBL
APPLETON       FOG       37  37 100 SE8       29.75F VSB 3/4 WCI  31
CLINTONVILLE   FOG       37  36  93 E5        29.78F VSB 1/2 WCI  34
OSHKOSH        FOG       39  38  96 SE7       29.74F VSB 1/4 WCI  34
$$

WIZ032>034-041-042-053>061-281600-
SOUTHWEST WISCONSIN

CITY           SKY/WX    TMP DP  RH WIND       PRES   REMARKS
LA CROSSE      CLOUDY    43  40  89 SE6       29.69F FOG
SPARTA         CLOUDY    39  39  99 NE6       29.72F FOG     WCI  35
VIROQUA        CLOUDY    38  38 100 E3        29.69F VSB<1/4
BOSCOBEL       LGT RAIN  43  41  93 VRB3      29.69F VSB 1
PRAIRIE DU CHI LGT RAIN  40  39  97 CALM      29.67F
PLATTEVILLE    CLOUDY    44  44 100 E7        29.69F
$$

WIZ056-057-062-063-064-067-068-281600-
SOUTH CENTRAL WISCONSIN

CITY           SKY/WX    TMP DP  RH WIND       PRES   REMARKS
REEDSBURG      DRZL/FOG  39  39 100 CALM      29.73R VSB 1/2
BARABOO/DELLS  FOG       39  38  97 CALM      29.75R VSB<1/4
LONE ROCK      LGT RAIN  44  42  93 E7        29.71F FOG
MINERAL POINT  LGT RAIN  46  46 100 SE10      29.69F
MADISON        CLOUDY    47  45  93 S9        29.71F FOG
MIDDLETON      CLOUDY    45  45 100 E6        29.72F
WATERTOWN      CLOUDY    44  44 100 SE6       29.75F FOG
MONROE         CLOUDY    46  45  93 SE10      29.71F FOG
JANESVILLE     CLOUDY    50  48  93 S7        29.74F FOG
$$

WIZ051-052-058>065-066-070>072-281600-
SOUTHEAST WISCONSIN

CITY           SKY/WX    TMP DP  RH WIND       PRES   REMARKS
MILWAUKEE      CLOUDY    47  44  90 S9        29.78F FOG
WAUKESHA       CLOUDY    43  43 100 SE7       29.78F FOG
MILWAUKEE/TIMM CLOUDY    43  39  87 CALM      29.79F FOG
RACINE         CLOUDY    44  41  89 S10       29.80F FOG
KENOSHA        CLOUDY    48  45  89 SE6       29.78F FOG
FOND DU LAC    CLOUDY    39  37  92 S8        29.75F FOG     WCI  33
SHEBOYGAN      LGT RAIN  39  38  96 S8        29.77F VSB 3/4 WCI  33
WEST BEND      FOG       41  41 100 CALM      29.78F VSB 1/2
JUNEAU         FOG       42  41  98 SE9       29.76F VSB 1
$$

LSZ147-162-281600-
LAKE SUPERIOR

STATION/POSITION TIME  TEMP    WIND        PRES    WAVE
                       AIR SEA DIR/SP/G            HT/PER
                 (UTC) (F)     (DEG/KT/KT) (MB)    (FT/S)
DEVILS ISLAND    1400   32      60/ 11/ 12 1010.8S
PORT WING        1440   32      10/  2/  2 1010.2S
SAXON HARBOR     1430   32      CALM  /  1 1009.5F
$$

LMZ867-665-643>646-281600-
LAKE MICHIGAN

STATION/POSITION TIME  TEMP    WIND        PRES    WAVE
                       AIR SEA DIR/SP/G            HT/PER
                 (UTC) (F)     (DEG/KT/KT) (MB)    (FT/S)
CHAMBERS ISLAND  1440   37      CALM  /  2 1009.8F
NORTHPORT PIER   1440   38     150/  6/  9 1010.5F
SISTER BAY       1350   38     170/  6/  8   N/A
KEWAUNEE LAKESHO 1430   38     120/  7/ 10 1009.0F
SHEBOYGAN LAKESH 1400   38     180/  9/ 10 1009.5F
PORT WASHINGTON  1430   39     170/  4/  6 1009.8F
MILWAUKEE LAKESH 1440   39     150/  7/  9   N/A
KENOSHA   LAKESH 1400   41     170/ 16/ 17 1009.5
$$

TC  - TEMPERATURE IN CELSIUS
VSB - VISIBILITY IN STATUTE MILES
WCI - WIND CHILL INDEX
HX  - HEAT INDEX





USA.gov is the U.S. government's official web portal to all federal, state and local government web resources and services.